This is the latest recevied weather packets stored in our database for station/object XE2OR-10. If no packets are shown the sender has not sent any weather packets the latest 10 day(s).
| Time | Temp. | Humidity | Pressure | Rain* | Wind** | Luminosity | Snow |
|---|---|---|---|---|---|---|---|
| 1777946629 | 26.11° C | 74% | 1013.3 hPa | 0 mm | - | 0 W/m² | - |
| 1777946329 | 26.11° C | 74% | 1013.1 hPa | 0 mm | - | 0 W/m² | - |
| 1777946033 | 26.67° C | 73% | 1013.1 hPa | 0 mm | - | 0 W/m² | - |
| 1777945729 | 26.67° C | 73% | 1013.1 hPa | 0 mm | - | 0 W/m² | - |
| 1777945433 | 26.67° C | 72% | 1013.3 hPa | 0 mm | - | 0 W/m² | - |
| 1777945129 | 26.67° C | 72% | 1012.9 hPa | 0 mm | - | 0 W/m² | - |
| 1777944829 | 26.67° C | 72% | 1013.1 hPa | 0 mm | - | 0 W/m² | - |
| 1777944529 | 27.22° C | 71% | 1013 hPa | 0 mm | - | 0 W/m² | - |
| 1777944232 | 27.22° C | 71% | 1012.9 hPa | 0 mm | - | 0 W/m² | - |
| 1777943929 | 27.22° C | 71% | 1013.2 hPa | 0 mm | - | 1 W/m² | - |
| 1777943632 | 27.22° C | 71% | 1012.9 hPa | 0 mm | - | 3 W/m² | - |
| 1777943329 | 27.78° C | 70% | 1013.1 hPa | 0 mm | - | 6 W/m² | - |
| 1777943029 | 27.78° C | 70% | 1012.8 hPa | 0 mm | - | 7 W/m² | - |
| 1777942729 | 27.78° C | 70% | 1013.1 hPa | 0 mm | - | 11 W/m² | - |
| 1777942432 | 27.78° C | 70% | 1012.8 hPa | 0 mm | - | 23 W/m² | - |
| 1777942128 | 27.78° C | 69% | 1013 hPa | 0 mm | - | 34 W/m² | - |
| 1777941833 | 27.78° C | 69% | 1013.1 hPa | 0 mm | - | 29 W/m² | - |
| 1777941529 | 28.33° C | 68% | 1012.8 hPa | 0 mm | - | 26 W/m² | - |
| 1777941229 | 28.33° C | 68% | 1013 hPa | 0 mm | - | 46 W/m² | - |
| 1777940929 | 28.33° C | 68% | 1012.9 hPa | 0 mm | - | 62 W/m² | - |
| 1777940633 | 28.33° C | 68% | 1012.9 hPa | 0 mm | - | 60 W/m² | - |
| 1777940329 | 28.33° C | 68% | 1012.7 hPa | 0 mm | - | 60 W/m² | - |
| 1777940033 | 28.33° C | 67% | 1012.9 hPa | 0 mm | - | 67 W/m² | - |
| 1777939729 | 28.33° C | 67% | 1013 hPa | 0 mm | - | 66 W/m² | - |
| 1777939429 | 28.33° C | 67% | 1012.8 hPa | 0 mm | - | 64 W/m² | - |
* Rain latest hour (hover to see other rain measurements)
** Current wind speed in m/s (hover to see current wind gust speed)